contact:dominique.lefevre@mio.osupytheas.fr, maurice.libes@osupytheas.fr, didier.mallarino@osupytheas.fr
Project:EMSO http://www.emso-fr.org/EMSO-France
Depth: 2436.0 m
Title:EMSO Ligure Ouest : Data MII capteur CSTAR
DateTime,Latitude,Longitude,Instrument_Serial,Reference_Counts,Signal_Counts,Corrected_Signal_raw_counts,Calculated_Beam_c_inverse_meters,Internal_thermistor_counts
DateTime,Latitude,Longitude,Instrument_Serial,Reference_Counts,Signal_Counts,Corrected_Signal_raw_counts,Calculated_Beam_c_inverse_meters,Internal_thermistor_counts
2019-08-22T00:00:37,42.805,6.029,CST-1368DR,8220,11504,15415,0.052,551
2019-08-22T00:03:39,42.805,6.029,CST-1368DR,8220,11506,15417,0.051,551
2019-08-22T00:06:41,42.805,6.029,CST-1368DR,8220,11506,15418,0.051,551
2019-08-22T00:09:42,42.805,6.029,CST-1368DR,8220,11505,15417,0.051,551
2019-08-22T00:12:44,42.805,6.029,CST-1368DR,8219,11506,15420,0.051,551
2019-08-22T00:15:46,42.805,6.029,CST-1368DR,8219,11506,15420,0.051,551
2019-08-22T00:18:47,42.805,6.029,CST-1368DR,8219,11504,15417,0.051,551
2019-08-22T00:21:49,42.805,6.029,CST-1368DR,8219,11504,15417,0.051,551
2019-08-22T00:24:50,42.805,6.029,CST-1368DR,8220,11504,15416,0.052,551
2019-08-22T00:27:53,42.805,6.029,CST-1368DR,8219,11506,15420,0.051,551
2019-08-22T00:30:55,42.805,6.029,CST-1368DR,8219,11504,15417,0.051,551
2019-08-22T00:33:57,42.805,6.029,CST-1368DR,8219,11505,15419,0.051,551
2019-08-22T00:36:58,42.805,6.029,CST-1368DR,8219,11506,15420,0.051,551
2019-08-22T00:40:00,42.805,6.029,CST-1368DR,8219,11503,15415,0.052,550
2019-08-22T00:43:01,42.805,6.029,CST-1368DR,8219,11504,15417,0.051,551
2019-08-22T00:46:03,42.805,6.029,CST-1368DR,8219,11503,15416,0.052,551
2019-08-22T00:49:05,42.805,6.029,CST-1368DR,8219,11505,15418,0.051,551
2019-08-22T00:52:06,42.805,6.029,CST-1368DR,8219,11506,15420,0.051,551
2019-08-22T00:55:08,42.805,6.029,CST-1368DR,8219,11504,15417,0.051,551
2019-08-22T00:58:10,42.805,6.029,CST-1368DR,8219,11505,15419,0.051,551
2019-08-22T01:01:11,42.805,6.029,CST-1368DR,8219,11504,15417,0.051,551
2019-08-22T01:04:13,42.805,6.029,CST-1368DR,8219,11504,15417,0.051,550
2019-08-22T01:07:15,42.805,6.029,CST-1368DR,8219,11504,15417,0.051,551
2019-08-22T01:10:16,42.805,6.029,CST-1368DR,8219,11505,15419,0.051,551
2019-08-22T01:13:18,42.805,6.029,CST-1368DR,8219,11505,15418,0.051,550
2019-08-22T01:16:19,42.805,6.029,CST-1368DR,8219,11503,15415,0.052,551
2019-08-22T01:19:21,42.805,6.029,CST-1368DR,8219,11506,15419,0.051,551
2019-08-22T01:22:23,42.805,6.029,CST-1368DR,8219,11505,15419,0.051,551
2019-08-22T01:25:24,42.805,6.029,CST-1368DR,8219,11502,15414,0.052,551
2019-08-22T01:28:26,42.805,6.029,CST-1368DR,8219,11504,15417,0.051,551
2019-08-22T01:31:28,42.805,6.029,CST-1368DR,8219,11503,15415,0.052,551
2019-08-22T01:34:29,42.805,6.029,CST-1368DR,8219,11505,15418,0.051,551
2019-08-22T01:37:31,42.805,6.029,CST-1368DR,8219,11504,15417,0.051,550
2019-08-22T01:40:33,42.805,6.029,CST-1368DR,8219,11505,15419,0.051,551
2019-08-22T01:43:34,42.805,6.029,CST-1368DR,8219,11503,15416,0.052,550
2019-08-22T01:46:36,42.805,6.029,CST-1368DR,8219,11504,15417,0.051,551
2019-08-22T01:49:38,42.805,6.029,CST-1368DR,8219,11498,15409,0.053,550
2019-08-22T01:52:39,42.805,6.029,CST-1368DR,8219,11504,15417,0.051,551
2019-08-22T01:55:41,42.805,6.029,CST-1368DR,8219,11503,15416,0.052,550
2019-08-22T01:58:42,42.805,6.029,CST-1368DR,8219,11501,15413,0.052,550
2019-08-22T02:01:44,42.805,6.029,CST-1368DR,8219,11503,15415,0.052,550
2019-08-22T02:04:46,42.805,6.029,CST-1368DR,8219,11501,15413,0.052,550
2019-08-22T02:07:47,42.805,6.029,CST-1368DR,8219,11504,15417,0.051,551
2019-08-22T02:10:49,42.805,6.029,CST-1368DR,8219,11504,15417,0.051,551
2019-08-22T02:13:51,42.805,6.029,CST-1368DR,8219,11504,15417,0.051,551
2019-08-22T02:16:52,42.805,6.029,CST-1368DR,8219,11504,15417,0.051,551
2019-08-22T02:19:54,42.805,6.029,CST-1368DR,8219,11505,15418,0.051,551
2019-08-22T02:22:56,42.805,6.029,CST-1368DR,8219,11504,15418,0.051,551
2019-08-22T02:25:58,42.805,6.029,CST-1368DR,8219,11504,15418,0.051,551
2019-08-22T02:28:59,42.805,6.029,CST-1368DR,8219,11503,15416,0.052,551
2019-08-22T02:32:01,42.805,6.029,CST-1368DR,8219,11499,15411,0.053,551
2019-08-22T02:35:03,42.805,6.029,CST-1368DR,8218,11503,15418,0.051,550
2019-08-22T02:38:04,42.805,6.029,CST-1368DR,8219,11505,15419,0.051,551
2019-08-22T02:41:06,42.805,6.029,CST-1368DR,8219,11503,15416,0.052,551
2019-08-22T02:44:07,42.805,6.029,CST-1368DR,8219,11504,15417,0.051,550
2019-08-22T02:47:09,42.805,6.029,CST-1368DR,8218,11504,15418,0.051,551
2019-08-22T02:50:11,42.805,6.029,CST-1368DR,8218,11487,15396,0.057,551
2019-08-22T02:53:12,42.805,6.029,CST-1368DR,8218,11504,15419,0.051,551
2019-08-22T02:56:14,42.805,6.029,CST-1368DR,8218,11500,15413,0.052,551
2019-08-22T02:59:16,42.805,6.029,CST-1368DR,8218,11501,15414,0.052,551
2019-08-22T03:02:17,42.805,6.029,CST-1368DR,8218,11502,15416,0.052,551
2019-08-22T03:05:19,42.805,6.029,CST-1368DR,8218,11503,15417,0.051,551
2019-08-22T03:08:20,42.805,6.029,CST-1368DR,8218,11499,15412,0.053,551
2019-08-22T03:11:22,42.805,6.029,CST-1368DR,8218,11504,15419,0.051,550
2019-08-22T03:14:24,42.805,6.029,CST-1368DR,8218,11500,15414,0.052,551
2019-08-22T03:17:25,42.805,6.029,CST-1368DR,8218,11502,15416,0.052,551
2019-08-22T03:20:27,42.805,6.029,CST-1368DR,8218,11502,15417,0.051,551
2019-08-22T03:23:29,42.805,6.029,CST-1368DR,8218,11503,15418,0.051,551
2019-08-22T03:26:30,42.805,6.029,CST-1368DR,8218,11485,15393,0.058,550
2019-08-22T03:29:32,42.805,6.029,CST-1368DR,8218,11504,15418,0.051,551
2019-08-22T03:32:34,42.805,6.029,CST-1368DR,8218,11503,15417,0.051,550
2019-08-22T03:35:35,42.805,6.029,CST-1368DR,8218,11504,15419,0.051,551
2019-08-22T03:38:37,42.805,6.029,CST-1368DR,8218,11502,15416,0.052,551
2019-08-22T03:41:38,42.805,6.029,CST-1368DR,8218,11503,15418,0.051,551
2019-08-22T03:44:40,42.805,6.029,CST-1368DR,8218,11502,15417,0.051,550
2019-08-22T03:47:42,42.805,6.029,CST-1368DR,8218,11503,15417,0.051,551
2019-08-22T03:50:43,42.805,6.029,CST-1368DR,8218,11503,15418,0.051,551
2019-08-22T03:53:45,42.805,6.029,CST-1368DR,8218,11504,15419,0.051,551
2019-08-22T03:56:47,42.805,6.029,CST-1368DR,8218,11504,15418,0.051,551
2019-08-22T03:59:48,42.805,6.029,CST-1368DR,8218,11489,15398,0.056,551
2019-08-22T04:02:50,42.805,6.029,CST-1368DR,8218,11504,15419,0.051,551
2019-08-22T04:05:52,42.805,6.029,CST-1368DR,8218,11504,15419,0.051,550
2019-08-22T04:08:53,42.805,6.029,CST-1368DR,8218,11503,15417,0.051,551
2019-08-22T04:11:55,42.805,6.029,CST-1368DR,8218,11496,15409,0.053,551
2019-08-22T04:14:56,42.805,6.029,CST-1368DR,8218,11500,15414,0.052,551
2019-08-22T04:17:58,42.805,6.029,CST-1368DR,8218,11502,15416,0.052,551
2019-08-22T04:21:00,42.805,6.029,CST-1368DR,8218,11501,15414,0.052,551
2019-08-22T04:24:01,42.805,6.029,CST-1368DR,8218,11504,15419,0.051,550
2019-08-22T04:27:03,42.805,6.029,CST-1368DR,8218,11503,15418,0.051,551
2019-08-22T04:30:05,42.805,6.029,CST-1368DR,8218,11504,15419,0.051,551
2019-08-22T04:33:07,42.805,6.029,CST-1368DR,8218,11505,15420,0.051,551
2019-08-22T04:36:08,42.805,6.029,CST-1368DR,8218,11503,15417,0.051,551
2019-08-22T04:39:10,42.805,6.029,CST-1368DR,8218,11502,15416,0.052,550
2019-08-22T04:42:11,42.805,6.029,CST-1368DR,8218,11504,15418,0.051,551
2019-08-22T04:45:13,42.805,6.029,CST-1368DR,8218,11502,15417,0.051,551
2019-08-22T04:48:15,42.805,6.029,CST-1368DR,8218,11503,15418,0.051,551
2019-08-22T04:51:16,42.805,6.029,CST-1368DR,8218,11500,15413,0.052,551
2019-08-22T04:54:18,42.805,6.029,CST-1368DR,8218,11497,15409,0.053,551
2019-08-22T04:57:20,42.805,6.029,CST-1368DR,8218,11503,15418,0.051,551
2019-08-22T05:00:21,42.805,6.029,CST-1368DR,8218,11504,15419,0.051,551
2019-08-22T05:03:23,42.805,6.029,CST-1368DR,8218,11503,15417,0.051,551
2019-08-22T05:06:25,42.805,6.029,CST-1368DR,8218,11501,15415,0.052,551
2019-08-22T05:09:26,42.805,6.029,CST-1368DR,8217,11499,15413,0.052,551
2019-08-22T05:12:28,42.805,6.029,CST-1368DR,8217,11502,15417,0.051,551
2019-08-22T05:15:29,42.805,6.029,CST-1368DR,8217,11502,15418,0.051,551
2019-08-22T05:18:31,42.805,6.029,CST-1368DR,8217,11502,15418,0.051,551
2019-08-22T05:21:33,42.805,6.029,CST-1368DR,8217,11503,15419,0.051,551
2019-08-22T05:24:34,42.805,6.029,CST-1368DR,8217,11503,15419,0.051,551
2019-08-22T05:27:36,42.805,6.029,CST-1368DR,8217,11503,15419,0.051,551
2019-08-22T05:30:38,42.805,6.029,CST-1368DR,8217,11502,15418,0.051,551
2019-08-22T05:33:39,42.805,6.029,CST-1368DR,8217,11501,15417,0.051,551
2019-08-22T05:36:41,42.805,6.029,CST-1368DR,8217,11503,15419,0.051,551
2019-08-22T05:39:43,42.805,6.029,CST-1368DR,8217,11503,15419,0.051,551
2019-08-22T05:42:44,42.805,6.029,CST-1368DR,8217,11499,15413,0.052,550
2019-08-22T05:45:46,42.805,6.029,CST-1368DR,8217,11501,15416,0.052,551
2019-08-22T05:48:48,42.805,6.029,CST-1368DR,8217,11501,15416,0.052,551
2019-08-22T05:51:49,42.805,6.029,CST-1368DR,8217,11501,15416,0.052,551
2019-08-22T05:54:51,42.805,6.029,CST-1368DR,8217,11503,15419,0.051,551
2019-08-22T05:57:53,42.805,6.029,CST-1368DR,8217,11504,15420,0.051,551
2019-08-22T06:00:55,42.805,6.029,CST-1368DR,8217,11504,15420,0.051,550
2019-08-22T06:03:56,42.805,6.029,CST-1368DR,8217,11504,15420,0.051,551
2019-08-22T06:06:58,42.805,6.029,CST-1368DR,8217,11504,15420,0.051,551
2019-08-22T06:10:00,42.805,6.029,CST-1368DR,8217,11503,15419,0.051,551
2019-08-22T06:13:01,42.805,6.029,CST-1368DR,8217,11503,15419,0.051,551
2019-08-22T06:16:03,42.805,6.029,CST-1368DR,8217,11497,15411,0.053,551
2019-08-22T06:19:05,42.805,6.029,CST-1368DR,8217,11503,15419,0.051,551
2019-08-22T06:22:06,42.805,6.029,CST-1368DR,8217,11499,15413,0.052,551
2019-08-22T06:25:08,42.805,6.029,CST-1368DR,8217,11502,15418,0.051,551
2019-08-22T06:28:10,42.805,6.029,CST-1368DR,8217,11502,15418,0.051,551
2019-08-22T06:31:11,42.805,6.029,CST-1368DR,8217,11503,15419,0.051,550
2019-08-22T06:34:13,42.805,6.029,CST-1368DR,8217,11503,15419,0.051,551
2019-08-22T06:37:15,42.805,6.029,CST-1368DR,8217,11502,15418,0.051,551
2019-08-22T06:40:16,42.805,6.029,CST-1368DR,8217,11502,15418,0.051,551
2019-08-22T06:43:18,42.805,6.029,CST-1368DR,8217,11499,15414,0.052,551
2019-08-22T06:46:20,42.805,6.029,CST-1368DR,8217,11501,15416,0.052,551
2019-08-22T06:49:21,42.805,6.029,CST-1368DR,8217,11500,15415,0.052,551
2019-08-22T06:52:23,42.805,6.029,CST-1368DR,8217,11500,15415,0.052,551
2019-08-22T06:55:24,42.805,6.029,CST-1368DR,8217,11498,15413,0.052,551
2019-08-22T06:58:26,42.805,6.029,CST-1368DR,8217,11501,15417,0.051,551
2019-08-22T07:01:28,42.805,6.029,CST-1368DR,8217,11500,15415,0.052,550
2019-08-22T07:04:29,42.805,6.029,CST-1368DR,8217,11497,15412,0.053,551
2019-08-22T07:07:31,42.805,6.029,CST-1368DR,8217,11496,15410,0.053,551
2019-08-22T07:10:33,42.805,6.029,CST-1368DR,8217,11499,15413,0.052,551
2019-08-22T07:13:34,42.805,6.029,CST-1368DR,8217,11499,15413,0.052,551
2019-08-22T07:16:36,42.805,6.029,CST-1368DR,8217,11500,15415,0.052,551
2019-08-22T07:19:38,42.805,6.029,CST-1368DR,8217,11498,15412,0.053,551
2019-08-22T07:22:39,42.805,6.029,CST-1368DR,8217,11499,15414,0.052,551
2019-08-22T07:25:41,42.805,6.029,CST-1368DR,8216,11500,15417,0.051,551
2019-08-22T07:28:43,42.805,6.029,CST-1368DR,8217,11499,15414,0.052,550
2019-08-22T07:31:44,42.805,6.029,CST-1368DR,8217,11499,15414,0.052,551
2019-08-22T07:34:46,42.805,6.029,CST-1368DR,8216,11497,15413,0.052,551
2019-08-22T07:37:48,42.805,6.029,CST-1368DR,8216,11500,15416,0.052,551
2019-08-22T07:40:49,42.805,6.029,CST-1368DR,8216,11500,15417,0.051,551
2019-08-22T07:43:51,42.805,6.029,CST-1368DR,8216,11500,15417,0.051,551
2019-08-22T07:46:53,42.805,6.029,CST-1368DR,8216,11500,15417,0.051,551
2019-08-22T07:49:55,42.805,6.029,CST-1368DR,8216,11500,15417,0.051,551
2019-08-22T07:52:57,42.805,6.029,CST-1368DR,8216,11500,15416,0.052,550
2019-08-22T07:55:58,42.805,6.029,CST-1368DR,8216,11501,15418,0.051,551
2019-08-22T07:59:00,42.805,6.029,CST-1368DR,8216,11500,15417,0.051,551
2019-08-22T08:02:02,42.805,6.029,CST-1368DR,8216,11501,15418,0.051,551
2019-08-22T08:05:03,42.805,6.029,CST-1368DR,8216,11501,15418,0.051,551
2019-08-22T08:08:05,42.805,6.029,CST-1368DR,8216,11500,15417,0.051,551
2019-08-22T08:11:07,42.805,6.029,CST-1368DR,8216,11499,15416,0.052,551
2019-08-22T08:14:08,42.805,6.029,CST-1368DR,8216,11502,15419,0.051,551
2019-08-22T08:17:10,42.805,6.029,CST-1368DR,8216,11498,15414,0.052,550
2019-08-22T08:20:12,42.805,6.029,CST-1368DR,8216,11494,15409,0.053,551
2019-08-22T08:23:13,42.805,6.029,CST-1368DR,8216,11501,15418,0.051,551
2019-08-22T08:26:15,42.805,6.029,CST-1368DR,8216,11499,15416,0.052,551
2019-08-22T08:29:17,42.805,6.029,CST-1368DR,8216,11500,15416,0.052,551
2019-08-22T08:32:18,42.805,6.029,CST-1368DR,8216,11499,15415,0.052,551
2019-08-22T08:35:20,42.805,6.029,CST-1368DR,8216,11500,15416,0.052,551
2019-08-22T08:38:22,42.805,6.029,CST-1368DR,8216,11501,15418,0.051,551
2019-08-22T08:41:23,42.805,6.029,CST-1368DR,8216,11497,15413,0.052,551
2019-08-22T08:44:25,42.805,6.029,CST-1368DR,8216,11497,15413,0.052,551
2019-08-22T08:47:27,42.805,6.029,CST-1368DR,8216,11497,15413,0.052,551
2019-08-22T08:50:28,42.805,6.029,CST-1368DR,8216,11501,15418,0.051,551
2019-08-22T08:53:30,42.805,6.029,CST-1368DR,8216,11501,15418,0.051,551
2019-08-22T08:56:31,42.805,6.029,CST-1368DR,8216,11498,15414,0.052,551
2019-08-22T08:59:33,42.805,6.029,CST-1368DR,8216,11500,15417,0.051,551
2019-08-22T09:02:35,42.805,6.029,CST-1368DR,8216,11500,15417,0.051,551
2019-08-22T09:05:36,42.805,6.029,CST-1368DR,8216,11500,15417,0.051,551
2019-08-22T09:08:38,42.805,6.029,CST-1368DR,8216,11500,15417,0.051,551
2019-08-22T09:11:40,42.805,6.029,CST-1368DR,8216,11500,15417,0.051,551
2019-08-22T09:14:41,42.805,6.029,CST-1368DR,8216,11496,15411,0.053,551
2019-08-22T09:17:43,42.805,6.029,CST-1368DR,8216,11501,15418,0.051,551
2019-08-22T09:20:45,42.805,6.029,CST-1368DR,8216,11501,15418,0.051,551
2019-08-22T09:23:46,42.805,6.029,CST-1368DR,8216,11501,15418,0.051,551
2019-08-22T09:26:48,42.805,6.029,CST-1368DR,8216,11499,15415,0.052,551
2019-08-22T09:29:50,42.805,6.029,CST-1368DR,8216,11499,15416,0.052,551
2019-08-22T09:32:52,42.805,6.029,CST-1368DR,8216,11501,15418,0.051,551
2019-08-22T09:35:53,42.805,6.029,CST-1368DR,8216,11500,15417,0.051,551
2019-08-22T09:38:55,42.805,6.029,CST-1368DR,8216,11499,15415,0.052,551
2019-08-22T09:41:56,42.805,6.029,CST-1368DR,8216,11500,15417,0.051,551
2019-08-22T09:44:58,42.805,6.029,CST-1368DR,8216,11500,15417,0.051,551
2019-08-22T09:48:00,42.805,6.029,CST-1368DR,8216,11501,15418,0.051,551
2019-08-22T09:51:01,42.805,6.029,CST-1368DR,8215,11498,15416,0.052,551
2019-08-22T09:54:03,42.805,6.029,CST-1368DR,8215,11497,15415,0.052,551
2019-08-22T09:57:05,42.805,6.029,CST-1368DR,8216,11500,15417,0.051,550
2019-08-22T10:00:06,42.805,6.029,CST-1368DR,8216,11500,15417,0.051,551
2019-08-22T10:03:08,42.805,6.029,CST-1368DR,8216,11500,15417,0.051,551
2019-08-22T10:06:10,42.805,6.029,CST-1368DR,8215,11498,15416,0.052,551
2019-08-22T10:09:11,42.805,6.029,CST-1368DR,8215,11499,15418,0.051,550
2019-08-22T10:12:13,42.805,6.029,CST-1368DR,8215,11499,15417,0.051,551
2019-08-22T10:15:15,42.805,6.029,CST-1368DR,8215,11498,15415,0.052,551
2019-08-22T10:18:16,42.805,6.029,CST-1368DR,8215,11500,15418,0.051,551
2019-08-22T10:21:18,42.805,6.029,CST-1368DR,8215,11500,15418,0.051,550
2019-08-22T10:24:20,42.805,6.029,CST-1368DR,8215,11498,15416,0.052,551
2019-08-22T10:27:21,42.805,6.029,CST-1368DR,8215,11499,15417,0.051,551
2019-08-22T10:30:23,42.805,6.029,CST-1368DR,8215,11499,15417,0.051,551
2019-08-22T10:33:25,42.805,6.029,CST-1368DR,8215,11499,15418,0.051,551
2019-08-22T10:36:26,42.805,6.029,CST-1368DR,8215,11497,15414,0.052,551
2019-08-22T10:39:28,42.805,6.029,CST-1368DR,8215,11499,15417,0.051,551
2019-08-22T10:42:30,42.805,6.029,CST-1368DR,8215,11497,15415,0.052,551
2019-08-22T10:45:31,42.805,6.029,CST-1368DR,8215,11496,15414,0.052,551
2019-08-22T10:48:33,42.805,6.029,CST-1368DR,8215,11500,15418,0.051,551
2019-08-22T10:51:35,42.805,6.029,CST-1368DR,8215,11497,15414,0.052,551
2019-08-22T10:54:36,42.805,6.029,CST-1368DR,8215,11499,15418,0.051,551
2019-08-22T10:57:38,42.805,6.029,CST-1368DR,8215,11496,15413,0.052,551
2019-08-22T11:00:40,42.805,6.029,CST-1368DR,8215,11497,15415,0.052,551
2019-08-22T11:03:41,42.805,6.029,CST-1368DR,8215,11497,15414,0.052,550
2019-08-22T11:06:43,42.805,6.029,CST-1368DR,8215,11496,15414,0.052,551
2019-08-22T11:09:45,42.805,6.029,CST-1368DR,8215,11499,15417,0.051,551
2019-08-22T11:12:46,42.805,6.029,CST-1368DR,8215,11499,15417,0.051,551
2019-08-22T11:15:48,42.805,6.029,CST-1368DR,8215,11496,15413,0.052,551
2019-08-22T11:18:50,42.805,6.029,CST-1368DR,8215,11497,15414,0.052,551
2019-08-22T11:21:51,42.805,6.029,CST-1368DR,8215,11496,15413,0.052,551
2019-08-22T11:24:53,42.805,6.029,CST-1368DR,8215,11497,15415,0.052,550
2019-08-22T11:27:55,42.805,6.029,CST-1368DR,8215,11499,15417,0.051,551
2019-08-22T11:30:56,42.805,6.029,CST-1368DR,8215,11499,15417,0.051,551
2019-08-22T11:33:58,42.805,6.029,CST-1368DR,8215,11499,15418,0.051,551
2019-08-22T11:37:00,42.805,6.029,CST-1368DR,8215,11500,15419,0.051,551
2019-08-22T11:40:01,42.805,6.029,CST-1368DR,8215,11499,15417,0.051,551
2019-08-22T11:43:03,42.805,6.029,CST-1368DR,8215,11499,15418,0.051,551
2019-08-22T11:46:05,42.805,6.029,CST-1368DR,8215,11499,15418,0.051,551
2019-08-22T11:49:06,42.805,6.029,CST-1368DR,8215,11499,15418,0.051,550
2019-08-22T11:52:08,42.805,6.029,CST-1368DR,8215,11499,15417,0.051,551
2019-08-22T11:55:10,42.805,6.029,CST-1368DR,8215,11498,15416,0.052,551
2019-08-22T11:58:11,42.805,6.029,CST-1368DR,8215,11498,15415,0.052,550
2019-08-22T12:01:13,42.805,6.029,CST-1368DR,8215,11499,15418,0.051,551
2019-08-22T12:04:14,42.805,6.029,CST-1368DR,8214,11498,15417,0.051,551
2019-08-22T12:07:16,42.805,6.029,CST-1368DR,8215,11499,15417,0.051,551
2019-08-22T12:10:18,42.805,6.029,CST-1368DR,8215,11497,15414,0.052,551
2019-08-22T12:13:20,42.805,6.029,CST-1368DR,8215,11497,15414,0.052,551
2019-08-22T12:16:21,42.805,6.029,CST-1368DR,8214,11498,15417,0.051,550
2019-08-22T12:19:23,42.805,6.029,CST-1368DR,8215,11497,15414,0.052,551
2019-08-22T12:22:25,42.805,6.029,CST-1368DR,8214,11497,15416,0.052,551
2019-08-22T12:25:26,42.805,6.029,CST-1368DR,8214,11498,15418,0.051,550
2019-08-22T12:28:28,42.805,6.029,CST-1368DR,8214,11495,15413,0.052,551
2019-08-22T12:31:30,42.805,6.029,CST-1368DR,8214,11499,15419,0.051,551
2019-08-22T12:34:31,42.805,6.029,CST-1368DR,8214,11496,15415,0.052,551
2019-08-22T12:37:33,42.805,6.029,CST-1368DR,8214,11499,15420,0.051,551
2019-08-22T12:40:34,42.805,6.029,CST-1368DR,8214,11499,15419,0.051,551
2019-08-22T12:43:36,42.805,6.029,CST-1368DR,8214,11498,15418,0.051,551
2019-08-22T12:46:38,42.805,6.029,CST-1368DR,8214,11499,15419,0.051,551
2019-08-22T12:49:39,42.805,6.029,CST-1368DR,8214,11499,15419,0.051,551
2019-08-22T12:52:41,42.805,6.029,CST-1368DR,8214,11497,15417,0.051,551
2019-08-22T12:55:43,42.805,6.029,CST-1368DR,8214,11498,15417,0.051,551
2019-08-22T12:58:44,42.805,6.029,CST-1368DR,8214,11498,15417,0.051,551
2019-08-22T13:01:46,42.805,6.029,CST-1368DR,8214,11497,15416,0.052,551
2019-08-22T13:04:48,42.805,6.029,CST-1368DR,8214,11499,15419,0.051,550
2019-08-22T13:07:49,42.805,6.029,CST-1368DR,8214,11498,15418,0.051,551
2019-08-22T13:10:51,42.805,6.029,CST-1368DR,8214,11497,15416,0.052,551
2019-08-22T13:13:53,42.805,6.029,CST-1368DR,8214,11499,15419,0.051,551
2019-08-22T13:16:54,42.805,6.029,CST-1368DR,8214,11497,15416,0.052,551
2019-08-22T13:19:56,42.805,6.029,CST-1368DR,8214,11497,15416,0.052,551
2019-08-22T13:22:58,42.805,6.029,CST-1368DR,8214,11498,15417,0.051,551
2019-08-22T13:25:59,42.805,6.029,CST-1368DR,8214,11493,15411,0.053,551
2019-08-22T13:29:01,42.805,6.029,CST-1368DR,8214,11499,15419,0.051,551
2019-08-22T13:32:03,42.805,6.029,CST-1368DR,8214,11498,15417,0.051,550
2019-08-22T13:35:04,42.805,6.029,CST-1368DR,8214,11499,15419,0.051,551
2019-08-22T13:38:06,42.805,6.029,CST-1368DR,8214,11499,15419,0.051,551
2019-08-22T13:41:07,42.805,6.029,CST-1368DR,8214,11498,15417,0.051,550
2019-08-22T13:44:09,42.805,6.029,CST-1368DR,8214,11498,15418,0.051,551
2019-08-22T13:47:11,42.805,6.029,CST-1368DR,8214,11499,15419,0.051,550
2019-08-22T13:50:12,42.805,6.029,CST-1368DR,8214,11496,15414,0.052,551
2019-08-22T13:53:14,42.805,6.029,CST-1368DR,8214,11498,15417,0.051,551
2019-08-22T13:56:16,42.805,6.029,CST-1368DR,8214,11499,15419,0.051,551
2019-08-22T13:59:17,42.805,6.029,CST-1368DR,8214,11497,15416,0.052,551
2019-08-22T14:02:19,42.805,6.029,CST-1368DR,8214,11498,15417,0.051,550
2019-08-22T14:05:21,42.805,6.029,CST-1368DR,8214,11497,15417,0.051,550
2019-08-22T14:08:22,42.805,6.029,CST-1368DR,8214,11496,15415,0.052,551
2019-08-22T14:11:24,42.805,6.029,CST-1368DR,8214,11497,15416,0.052,551
2019-08-22T14:14:26,42.805,6.029,CST-1368DR,8214,11498,15417,0.051,551
2019-08-22T14:17:27,42.805,6.029,CST-1368DR,8214,11497,15416,0.052,551
2019-08-22T14:20:29,42.805,6.029,CST-1368DR,8214,11497,15416,0.052,551
2019-08-22T14:23:31,42.805,6.029,CST-1368DR,8214,11498,15417,0.051,551
2019-08-22T14:26:32,42.805,6.029,CST-1368DR,8214,11496,15415,0.052,551
2019-08-22T14:29:34,42.805,6.029,CST-1368DR,8214,11498,15418,0.051,551
2019-08-22T14:32:36,42.805,6.029,CST-1368DR,8214,11496,15415,0.052,551
2019-08-22T14:35:37,42.805,6.029,CST-1368DR,8213,11497,15418,0.051,550
2019-08-22T14:38:39,42.805,6.029,CST-1368DR,8214,11497,15416,0.052,551
2019-08-22T14:41:40,42.805,6.029,CST-1368DR,8213,11494,15415,0.052,551
2019-08-22T14:44:42,42.805,6.029,CST-1368DR,8213,11493,15413,0.052,551
2019-08-22T14:47:44,42.805,6.029,CST-1368DR,8213,11496,15417,0.051,551
2019-08-22T14:50:45,42.805,6.029,CST-1368DR,8213,11496,15417,0.051,551
2019-08-22T14:53:47,42.805,6.029,CST-1368DR,8213,11494,15415,0.052,551
2019-08-22T14:56:49,42.805,6.029,CST-1368DR,8213,11496,15417,0.051,551
2019-08-22T14:59:50,42.805,6.029,CST-1368DR,8213,11497,15418,0.051,551
2019-08-22T15:02:52,42.805,6.029,CST-1368DR,8213,11496,15417,0.051,551
2019-08-22T15:05:54,42.805,6.029,CST-1368DR,8213,11496,15417,0.051,551
2019-08-22T15:08:55,42.805,6.029,CST-1368DR,8213,11495,15416,0.052,551
2019-08-22T15:11:57,42.805,6.029,CST-1368DR,8213,11495,15415,0.052,551
2019-08-22T15:14:59,42.805,6.029,CST-1368DR,8213,11496,15417,0.051,551
2019-08-22T15:18:00,42.805,6.029,CST-1368DR,8213,11496,15417,0.051,551
2019-08-22T15:21:02,42.805,6.029,CST-1368DR,8213,11495,15416,0.052,551
2019-08-22T15:24:04,42.805,6.029,CST-1368DR,8213,11494,15414,0.052,551
2019-08-22T15:27:05,42.805,6.029,CST-1368DR,8213,11496,15417,0.051,551
2019-08-22T15:30:07,42.805,6.029,CST-1368DR,8213,11494,15414,0.052,551
2019-08-22T15:33:09,42.805,6.029,CST-1368DR,8213,11496,15416,0.052,551
2019-08-22T15:36:10,42.805,6.029,CST-1368DR,8213,11497,15418,0.051,551
2019-08-22T15:39:12,42.805,6.029,CST-1368DR,8213,11497,15418,0.051,550
2019-08-22T15:42:14,42.805,6.029,CST-1368DR,8213,11496,15417,0.051,551
2019-08-22T15:45:15,42.805,6.029,CST-1368DR,8213,11496,15416,0.052,551
2019-08-22T15:48:17,42.805,6.029,CST-1368DR,8213,11497,15418,0.051,551
2019-08-22T15:51:19,42.805,6.029,CST-1368DR,8213,11495,15416,0.052,551
2019-08-22T15:54:20,42.805,6.029,CST-1368DR,8213,11496,15417,0.051,551
2019-08-22T15:57:22,42.805,6.029,CST-1368DR,8213,11495,15416,0.052,551
2019-08-22T16:00:24,42.805,6.029,CST-1368DR,8213,11494,15414,0.052,551
2019-08-22T16:03:25,42.805,6.029,CST-1368DR,8213,11496,15417,0.051,551
2019-08-22T16:06:27,42.805,6.029,CST-1368DR,8213,11495,15416,0.052,551
2019-08-22T16:09:29,42.805,6.029,CST-1368DR,8213,11496,15417,0.051,551
2019-08-22T16:12:30,42.805,6.029,CST-1368DR,8213,11496,15417,0.051,551
2019-08-22T16:15:32,42.805,6.029,CST-1368DR,8213,11494,15414,0.052,551
2019-08-22T16:18:34,42.805,6.029,CST-1368DR,8213,11496,15417,0.051,551
2019-08-22T16:21:36,42.805,6.029,CST-1368DR,8213,11496,15417,0.051,551
2019-08-22T16:24:38,42.805,6.029,CST-1368DR,8213,11496,15416,0.052,551
2019-08-22T16:27:39,42.805,6.029,CST-1368DR,8213,11492,15412,0.053,551
2019-08-22T16:30:41,42.805,6.029,CST-1368DR,8213,11495,15416,0.052,551
2019-08-22T16:33:42,42.805,6.029,CST-1368DR,8213,11496,15416,0.052,551
2019-08-22T16:36:44,42.805,6.029,CST-1368DR,8213,11495,15416,0.052,551